Galesburg, IL

11:37 PM CST on January 20, 2017 (GMT -0600)
Galesburg

Weather History for KGBG - March, 2013

Change the Weather History Date:

Monday, March 25, 2013

  Actual Average Record
Temperature  
Mean Temperature 31 °F -  
Max Temperature 34 °F 49 °F 76 °F (2012)
Min Temperature 28 °F 31 °F 6 °F (1960)
Degree Days  
Heating Degree Days 34    
Moisture  
Dew Point 25 °F    
Average Humidity 79    
Maximum Humidity 94    
Minimum Humidity 68    
Precipitation  
Precipitation 0.00 in - - ()
Sea Level Pressure  
Sea Level Pressure 29.96 in    
Wind  
Wind Speed 12 mph (NW)    
Max Wind Speed 17 mph    
Max Gust Speed 23 mph    
Visibility 10 miles    
Events Snow    
Averages and records for this station are not official NWS values.
T = Trace of Precipitation, MM = Missing Value Source: NWS Daily Summary

Daily Weather History Graph

Daily Weather History Graph

Search for Another Location

Airport or City:

Trip Planner

Search our weather history database for the weather conditions in past years. The results will help you decide how hot, cold, wet, or windy it might be!

Date:

Astronomy

Mar. 25, 2013 Rise Set
Actual Time 6:56 AM CDT 7:19 PM CDT
Civil Twilight 6:28 AM CDT 7:47 PM CDT
Nautical Twilight 5:56 AM CDT 8:19 PM CDT
Astronomical Twilight 5:23 AM CDT 8:52 PM CDT
Moon 5:50 PM CDT (3/25) 5:40 AM CDT (3/25)
Length of Visible Light 13h 18m
Length of Day
12h 23m
Waxing Gibbous, 96% of the Moon is Illuminated
Mar 25
Waxing Gibbous
Mar 27
Full
Apr 2
Last Quarter
Apr 10
New
Apr 18
First Quarter

Hourly Weather History & Observations

Time (CDT) Temp. Windchill Dew Point Humidity Pressure Visibility Wind Dir Wind Speed Gust Speed Precip Events Conditions
12:15 AM 29.3 °F 19.1 °F 27.3 °F 92% 29.80 in 10.0 mi NNW 12.7 mph - N/A Snow Light Snow
12:35 AM 29.3 °F 18.6 °F 27.3 °F 92% 29.81 in 7.0 mi NNW 13.8 mph - N/A Snow Light Snow
12:55 AM 29.3 °F 18.6 °F 27.3 °F 92% 29.81 in 5.0 mi NNW 13.8 mph - N/A Snow Light Snow
1:15 AM 29.3 °F 18.6 °F 26.6 °F 90% 29.82 in 7.0 mi North 13.8 mph - N/A Snow Light Snow
1:35 AM 29.1 °F 18.4 °F 26.6 °F 90% 29.82 in 7.0 mi NNW 13.8 mph - N/A Snow Light Snow
1:55 AM 28.9 °F 18.6 °F 26.4 °F 90% 29.82 in 10.0 mi NNW 12.7 mph - N/A   Overcast
2:15 AM 28.8 °F 18.4 °F 25.7 °F 88% 29.82 in 10.0 mi NNW 12.7 mph - N/A   Overcast
2:35 AM 28.8 °F 19.5 °F 26.6 °F 92% 29.82 in 10.0 mi NW 10.4 mph - N/A   Overcast
2:55 AM 28.8 °F 19.5 °F 27.3 °F 94% 29.82 in 10.0 mi NW 10.4 mph - N/A   Overcast
3:15 AM 28.9 °F 19.8 °F 27.0 °F 92% 29.82 in 10.0 mi NW 10.4 mph - N/A   Overcast
3:35 AM 28.4 °F 18.0 °F 26.6 °F 93% 29.82 in 5.0 mi NW 12.7 mph - N/A Snow Light Snow
3:55 AM 28.8 °F 19.0 °F 27.3 °F 94% 29.82 in 4.0 mi NW 11.5 mph - N/A Snow Light Snow
4:15 AM 28.8 °F 18.4 °F 26.6 °F 92% 29.82 in 7.0 mi NW 12.7 mph - N/A Snow Light Snow
4:35 AM 28.8 °F 19.0 °F 26.4 °F 91% 29.82 in 4.0 mi NW 11.5 mph - N/A Snow Light Snow
4:55 AM 28.9 °F 19.2 °F 25.7 °F 88% 29.82 in 10.0 mi NW 11.5 mph - N/A Snow Light Snow
5:15 AM 29.1 °F 18.9 °F 25.3 °F 86% 29.82 in 10.0 mi NW 12.7 mph 17.3 mph N/A   Overcast
5:35 AM 28.9 °F 19.2 °F 25.0 °F 85% 29.83 in 10.0 mi NW 11.5 mph - N/A   Overcast
5:55 AM 28.9 °F 19.2 °F 24.3 °F 83% 29.84 in 10.0 mi NW 11.5 mph - N/A   Overcast
6:15 AM 28.9 °F 18.6 °F 23.9 °F 81% 29.84 in 10.0 mi NW 12.7 mph - N/A   Overcast
6:35 AM 28.9 °F 19.8 °F 23.9 °F 81% 29.85 in 10.0 mi NW 10.4 mph - N/A   Overcast
6:55 AM 28.4 °F 19.7 °F 24.4 °F 85% 29.86 in 10.0 mi NW 9.2 mph - N/A   Overcast
7:15 AM 28.4 °F 19.7 °F 24.8 °F 86% 29.87 in 10.0 mi NW 9.2 mph - N/A   Overcast
7:35 AM 28.6 °F 19.3 °F 24.8 °F 86% 29.88 in 10.0 mi NW 10.4 mph - N/A   Overcast
7:55 AM 29.1 °F 20.6 °F 24.6 °F 83% 29.88 in 10.0 mi NW 9.2 mph - N/A   Overcast
8:15 AM 29.3 °F 20.2 °F 24.3 °F 81% 29.89 in 10.0 mi NW 10.4 mph - N/A   Overcast
8:35 AM 29.7 °F 18.6 °F 24.3 °F 80% 29.90 in 10.0 mi NW 15.0 mph 19.6 mph N/A Snow Light Snow
8:55 AM 30.0 °F 19.5 °F 23.5 °F 77% 29.91 in 7.0 mi NW 13.8 mph - N/A Snow Light Snow
9:15 AM 30.6 °F 19.4 °F 22.8 °F 73% 29.91 in 10.0 mi NNW 16.1 mph - N/A Snow Light Snow
9:35 AM 31.1 °F 20.5 °F 22.5 °F 70% 29.92 in 10.0 mi NW 15.0 mph 21.9 mph N/A   Overcast
9:55 AM 31.1 °F 19.7 °F 22.1 °F 69% 29.92 in 10.0 mi NW 17.3 mph 23.0 mph N/A   Mostly Cloudy
10:15 AM 31.3 °F 19.9 °F 22.1 °F 69% 29.93 in 10.0 mi NW 17.3 mph 20.7 mph N/A   Scattered Clouds
10:35 AM 31.6 °F 22.6 °F 22.6 °F 69% 29.94 in 10.0 mi NW 11.5 mph - N/A   Mostly Cloudy
10:55 AM 31.5 °F 21.8 °F 23.2 °F 71% 29.95 in 10.0 mi NNW 12.7 mph - N/A   Overcast
11:15 AM 31.8 °F 22.3 °F 23.4 °F 71% 29.95 in 10.0 mi NNW 12.7 mph - N/A   Overcast
11:35 AM 32.0 °F 21.6 °F 23.0 °F 69% 29.96 in 10.0 mi NNW 15.0 mph 20.7 mph N/A   Overcast
11:55 AM 32.4 °F 23.0 °F 23.9 °F 71% 29.96 in 10.0 mi NNW 12.7 mph - N/A   Overcast
12:15 PM 33.1 °F 23.4 °F 24.4 °F 71% 29.96 in 10.0 mi NW 13.8 mph 17.3 mph N/A   Overcast
12:35 PM 33.3 °F 24.1 °F 24.6 °F 71% 29.97 in 10.0 mi NNW 12.7 mph - N/A   Overcast
12:55 PM 34.2 °F 24.8 °F 24.6 °F 68% 29.97 in 10.0 mi NNW 13.8 mph - N/A   Mostly Cloudy
1:15 PM 34.0 °F 24.6 °F 24.4 °F 68% 29.97 in 10.0 mi NNW 13.8 mph 18.4 mph N/A   Scattered Clouds
1:35 PM 34.5 °F 25.3 °F 24.8 °F 68% 29.97 in 10.0 mi NW 13.8 mph 18.4 mph N/A   Clear
1:55 PM 34.3 °F 25.0 °F 24.6 °F 68% 29.97 in 10.0 mi NW 13.8 mph - N/A   Clear
2:15 PM 34.5 °F 26.2 °F 25.9 °F 71% 29.98 in 10.0 mi NW 11.5 mph 17.3 mph N/A   Clear
2:35 PM 34.5 °F 25.3 °F 26.1 °F 71% 29.98 in 10.0 mi NW 13.8 mph - N/A   Clear
2:55 PM 34.7 °F 25.5 °F 26.4 °F 72% 29.99 in 10.0 mi NW 13.8 mph - N/A   Clear
3:15 PM 34.7 °F 25.5 °F 25.9 °F 70% 29.99 in 10.0 mi WNW 13.8 mph - N/A   Clear
3:35 PM 34.7 °F 25.9 °F 26.2 °F 71% 30.00 in 10.0 mi NW 12.7 mph 18.4 mph N/A   Clear
3:55 PM 34.7 °F 25.5 °F 26.1 °F 71% 30.00 in 10.0 mi NW 13.8 mph - N/A   Clear
4:15 PM 34.7 °F 25.5 °F 26.4 °F 72% 30.01 in 10.0 mi NW 13.8 mph - N/A   Scattered Clouds
4:35 PM 34.2 °F 24.8 °F 25.7 °F 71% 30.02 in 10.0 mi NW 13.8 mph 20.7 mph N/A   Scattered Clouds
4:55 PM 33.8 °F 23.5 °F 25.3 °F 71% 30.03 in 10.0 mi NW 16.1 mph 20.7 mph N/A   Mostly Cloudy
5:15 PM 33.6 °F 24.6 °F 25.7 °F 73% 30.04 in 10.0 mi NW 12.7 mph 18.4 mph N/A   Mostly Cloudy
5:35 PM 33.4 °F 24.3 °F 25.3 °F 72% 30.04 in 10.0 mi NW 12.7 mph 16.1 mph N/A   Scattered Clouds
5:55 PM 33.1 °F 24.9 °F 25.3 °F 73% 30.05 in 10.0 mi NW 10.4 mph - N/A   Clear
6:15 PM 32.9 °F 25.3 °F 25.5 °F 74% 30.06 in 10.0 mi NW 9.2 mph - N/A   Clear
6:35 PM 32.5 °F 24.2 °F 25.2 °F 74% 30.07 in 10.0 mi NW 10.4 mph - N/A   Clear
6:55 PM 32.5 °F 24.8 °F 25.2 °F 74% 30.08 in 10.0 mi NW 9.2 mph - N/A   Mostly Cloudy
7:15 PM 32.4 °F 24.6 °F 25.7 °F 76% 30.09 in 10.0 mi NW 9.2 mph - N/A   Overcast
7:35 PM 32.5 °F 24.8 °F 25.7 °F 76% 30.09 in 10.0 mi NW 9.2 mph - N/A   Overcast
7:55 PM 32.5 °F 24.2 °F 26.1 °F 77% 30.10 in 10.0 mi NW 10.4 mph - N/A   Overcast
8:15 PM 32.4 °F 25.3 °F 26.6 °F 79% 30.11 in 10.0 mi NW 8.1 mph - N/A   Overcast
8:35 PM 32.2 °F 25.0 °F 26.6 °F 80% 30.11 in 10.0 mi NW 8.1 mph - N/A   Overcast
8:55 PM 32.4 °F 26.0 °F 26.6 °F 79% 30.12 in 10.0 mi NW 6.9 mph - N/A   Overcast
9:15 PM 32.4 °F 26.0 °F 26.6 °F 79% 30.13 in 10.0 mi NW 6.9 mph - N/A   Overcast
9:35 PM 32.2 °F 26.7 °F 26.6 °F 80% 30.13 in 10.0 mi NW 5.8 mph - N/A   Overcast
9:55 PM 32.2 °F 25.8 °F 25.5 °F 76% 30.14 in 10.0 mi NW 6.9 mph - N/A   Overcast
10:15 PM 32.0 °F 26.4 °F 25.2 °F 76% 30.14 in 10.0 mi NW 5.8 mph - N/A   Overcast
10:35 PM 32.0 °F 27.5 °F 25.2 °F 76% 30.14 in 10.0 mi NW 4.6 mph - N/A   Overcast
10:55 PM 31.5 °F 28.1 °F 25.5 °F 79% 30.15 in 10.0 mi WNW 3.5 mph - N/A   Overcast
11:15 PM 31.6 °F 26.0 °F 25.5 °F 78% 30.15 in 10.0 mi WNW 5.8 mph - N/A   Overcast
11:35 PM 31.6 °F 25.1 °F 25.5 °F 78% 30.15 in 10.0 mi WNW 6.9 mph - N/A   Overcast
11:55 PM 31.6 °F 26.0 °F 25.2 °F 77% 30.15 in 10.0 mi WNW 5.8 mph - N/A   Overcast